Location: El Carrer d�Abaix
(41.5797°N, 2.1791°E)
Time: 11:06:59
(UTC+00:00)

S3M - Pass Details

Date: 06 June 2020
Orbit: 950 x 1003 km, 83.0° (Epoch: 10 July)

Event Time Altitude Azimuth Distance (km) Brightness Sun altitude
Rises 22:11:13 0° 352° (N) 3,656 8.3 -21.7°
Reaches altitude 10° 22:13:43 10° 352° (N) 2,713 7.4 -21.9°
Maximum altitude 22:19:57 88° 264° (W) 981 3.9 -22.3°
Enters shadow 22:22:10 43° 176° (S) 1,338 4.2 -22.5°
